DW4338 Bergen NO current weather conditions

sailwx.info

Wind from 355 at 18 knots gusting 39

Air temperature 8.9° C
Dewpoint 5.1° C

Last reported at 2017-Jun-26 21:41 UTC.
Time now 2017-Jun-26 22:41 UTC

Location: N 60°31' E 004°54'.
View on Google Maps.

See reports from other nearby stations

  
Tides and Currents Weather Stations Pressure Air Temp Water Temp Dewpoint Dewpoint Depression Visibility Wind Speed Wind Dir Waves Ship Positions
date/time (UTC)wind fromknots sea level pressurealtimeterstation pressurevisibilityair tempwater tempwave heightnotes
2017-Jun-26 21:41 355 18 gusting 39 8.9
2017-Jun-26 21:26 360 17 gusting 35 8.9
2017-Jun-26 21:11 342 23 gusting 40 8.9
2017-Jun-26 20:56 355 19 gusting 41 8.9
2017-Jun-26 20:41 335 21 gusting 42 8.9
2017-Jun-26 20:26 355 20 gusting 44 9.4
2017-Jun-26 20:11 347 25 gusting 39 9.4
2017-Jun-26 19:56 315 20 gusting 39 9.4
2017-Jun-26 19:41 330 20 gusting 47 10.0
2017-Jun-26 19:26 340 21 gusting 48 10.0
2017-Jun-26 19:11 009 19 gusting 51 10.0
2017-Jun-26 18:56 020 17 gusting 38 10.6
2017-Jun-26 18:41 005 19 gusting 56 10.6
2017-Jun-26 18:26 028 26 gusting 50 11.1
2017-Jun-26 18:11 005 23 gusting 50 11.1
2017-Jun-26 17:56 039 26 gusting 44 11.1
2017-Jun-26 17:40 030 23 gusting 42 11.7
2017-Jun-26 17:26 335 21 gusting 44 11.7
2017-Jun-26 17:10 030 25 gusting 46 11.1
2017-Jun-26 16:55 347 20 gusting 51 11.7
2017-Jun-26 16:40 022 26 gusting 59 12.2
2017-Jun-26 16:25 036 26 gusting 51 11.7
2017-Jun-26 16:10 355 25 gusting 55 12.2
2017-Jun-26 15:55 338 31 gusting 56 12.2
2017-Jun-26 15:40 347 19 gusting 52 12.2
2017-Jun-26 15:25 336 24 gusting 49 12.2
2017-Jun-26 15:10 020 24 gusting 60 12.2
2017-Jun-26 14:55 017 30 gusting 54 12.2
2017-Jun-26 14:40 355 19 gusting 53 12.2
2017-Jun-26 14:25 030 31 gusting 54 11.7
2017-Jun-26 14:10 317 26 gusting 52 12.2
2017-Jun-26 13:55 313 23 gusting 49 12.2
2017-Jun-26 13:40 020 30 gusting 48 11.7
2017-Jun-26 13:25 019 26 gusting 46 12.2
2017-Jun-26 13:10 021 26 gusting 53 11.7
2017-Jun-26 12:55 349 24 gusting 52 11.7
2017-Jun-26 12:40 022 26 gusting 55 11.7
2017-Jun-26 12:25 026 26 gusting 53 11.7
2017-Jun-26 12:10 342 31 gusting 54 11.7
2017-Jun-26 11:55 034 30 gusting 56 11.1
2017-Jun-26 11:40 360 29 gusting 52 11.1
2017-Jun-26 11:25 325 25 gusting 52 11.1
2017-Jun-26 11:10 022 21 gusting 48 11.1
2017-Jun-26 10:55 355 22 gusting 45 11.1
2017-Jun-26 10:40 344 25 gusting 53 11.1
2017-Jun-26 10:25 350 26 gusting 46 11.1
2017-Jun-26 10:10 355 27 gusting 48 11.1
2017-Jun-26 09:55 313 21 gusting 46 11.1
2017-Jun-26 09:40 355 19 gusting 52 10.6
2017-Jun-26 09:25 360 22 gusting 46 10.6
2017-Jun-26 09:10 325 22 gusting 51 11.1
2017-Jun-26 08:54 350 20 gusting 41 10.6
2017-Jun-26 08:39 360 14 gusting 44 10.6
2017-Jun-26 08:24 342 24 gusting 47 10.6
2017-Jun-26 08:09 026 18 gusting 45 10.6
2017-Jun-26 07:54 348 17 gusting 33 10.0
2017-Jun-26 07:39 015 27 gusting 44 10.0
2017-Jun-26 07:24 346 23 gusting 41 10.6
2017-Jun-26 07:09 015 24 gusting 51 10.0
2017-Jun-26 06:54 036 22 gusting 55 10.0
2017-Jun-26 06:39 360 21 gusting 41 10.0
2017-Jun-26 06:24 340 24 gusting 43 9.4
2017-Jun-26 06:09 360 16 gusting 44 9.4
2017-Jun-26 05:54 336 14 gusting 39 8.9
2017-Jun-26 05:39 005 26 gusting 46 8.9
2017-Jun-26 05:24 331 24 gusting 48 9.4
2017-Jun-26 05:09 313 24 gusting 39 9.4
2017-Jun-26 04:54 021 21 gusting 45 9.4
2017-Jun-26 04:39 019 17 gusting 39 9.4
2017-Jun-26 04:24 318 19 gusting 35 9.4
2017-Jun-26 04:09 360 12 gusting 38 9.4
2017-Jun-26 03:54 024 22 gusting 41 9.4
2017-Jun-26 03:39 348 14 gusting 39 9.4
2017-Jun-26 03:24 014 11 gusting 33 9.4
2017-Jun-26 03:09 355 8 gusting 30 9.4
2017-Jun-26 02:54 355 16 gusting 34 9.4
2017-Jun-26 02:39 018 17 gusting 33 10.0
2017-Jun-26 02:23 348 17 gusting 40 10.0
2017-Jun-26 02:08 005 13 gusting 42 10.0
2017-Jun-26 01:53 331 14 gusting 34 10.0
2017-Jun-26 01:38 360 13 gusting 41 10.0
2017-Jun-26 01:23 005 20 gusting 39 10.0
2017-Jun-26 01:08 317 19 gusting 52 10.0
2017-Jun-26 00:53 005 13 gusting 35 10.0
2017-Jun-26 00:38 005 22 gusting 44 10.0
2017-Jun-26 00:23 306 21 gusting 45 10.0
2017-Jun-26 00:08 340 17 gusting 42 10.0
2017-Jun-25 23:53 338 26 gusting 52 10.0
2017-Jun-25 23:38 355 20 gusting 46 10.0
2017-Jun-25 23:23 333 22 gusting 39 10.0
2017-Jun-25 23:08 022 23 gusting 39 10.0
2017-Jun-25 22:53 344 19 gusting 39 10.0
2017-Jun-25 22:38 336 26 gusting 55 10.0
2017-Jun-25 22:23 355 19 gusting 39 10.0
2017-Jun-25 22:08 009 21 gusting 47 10.6
2017-Jun-25 21:53 011 22 gusting 47 10.0
2017-Jun-25 21:38 360 29 gusting 47 10.0
2017-Jun-25 21:23 339 26 gusting 54 10.0
2017-Jun-25 21:08 360 26 gusting 44 10.0
2017-Jun-25 20:53 343 26 gusting 58 10.0
2017-Jun-25 20:38 355 28 gusting 52 10.0
2017-Jun-25 20:23 328 24 gusting 59 10.0
2017-Jun-25 20:08 011 26 gusting 65 10.6
2017-Jun-25 19:53 360 29 gusting 58 10.6
2017-Jun-25 19:38 321 26 gusting 51 11.1
2017-Jun-25 19:23 355 32 gusting 53 11.1
2017-Jun-25 19:07 355 29 gusting 51 11.1
2017-Jun-25 18:53 355 23 gusting 50 11.1
2017-Jun-25 18:37 009 27 gusting 53 11.1
2017-Jun-25 18:22 340 16 gusting 36 11.7
2017-Jun-25 18:07 041 16 gusting 29 11.7
2017-Jun-25 17:53 347 3 gusting 11 11.1
2017-Jun-25 17:38 005 10.6
2017-Jun-25 17:23 005 3 gusting 9 10.0
2017-Jun-25 17:07 023 9.4
2017-Jun-25 16:53 026 12 gusting 30 9.4
2017-Jun-25 16:37 355 3 gusting 15 10.0
2017-Jun-25 16:22 360 6 gusting 29 10.0
2017-Jun-25 16:08 005 6 gusting 17 10.6
2017-Jun-25 15:52 333 8 gusting 26 10.6
2017-Jun-25 15:37 360 9 gusting 31 10.0
2017-Jun-25 15:22 019 9 gusting 36 10.0
2017-Jun-25 15:07 027 17 gusting 33 10.0
2017-Jun-25 14:52 048 15 gusting 28 10.6
2017-Jun-25 14:37 112 6 gusting 26 10.0
2017-Jun-25 14:22 090 7 gusting 22 10.0
2017-Jun-25 14:07 084 9 gusting 31 10.6
2017-Jun-25 13:52 067 9 gusting 32 11.1
2017-Jun-25 13:37 011 12 gusting 28 12.2
2017-Jun-25 13:22 230 10 gusting 22 12.2
2017-Jun-25 13:07 254 13 gusting 25 12.2
2017-Jun-25 12:52 249 12 gusting 27 11.7
2017-Jun-25 12:37 234 5 gusting 19 11.1
2017-Jun-25 12:22 235 10 gusting 30 11.1
2017-Jun-25 12:07 219 11 gusting 27 11.1
2017-Jun-25 11:52 239 10 gusting 25 10.0
2017-Jun-25 11:37 211 19 gusting 41 10.0
2017-Jun-25 11:22 251 11 gusting 35 10.0
2017-Jun-25 11:07 235 15 gusting 35 10.6
2017-Jun-25 10:52 225 22 gusting 45 10.6
2017-Jun-25 10:37 212 15 gusting 39 10.6
2017-Jun-25 10:22 224 18 gusting 39 10.6
2017-Jun-25 10:07 196 16 gusting 35 10.6
2017-Jun-25 09:52 223 17 gusting 33 11.1
2017-Jun-25 09:37 234 21 gusting 40 11.1
2017-Jun-25 09:22 242 18 gusting 48 11.1
2017-Jun-25 09:07 193 22 gusting 46 11.7
2017-Jun-25 08:52 229 19 gusting 47 11.7
2017-Jun-25 08:37 248 28 gusting 48 10.6
2017-Jun-25 08:22 211 10 gusting 29 10.0
2017-Jun-25 08:07 259 22 gusting 51 10.0
2017-Jun-25 07:52 213 18 gusting 39 10.0
2017-Jun-25 07:37 242 11 gusting 53 10.0
2017-Jun-25 07:22 211 20 gusting 47 10.6
2017-Jun-25 07:07 219 25 gusting 50 10.0
2017-Jun-25 06:52 209 23 gusting 56 10.0
2017-Jun-25 06:37 238 26 gusting 47 11.1
2017-Jun-25 06:22 182 18 gusting 44 10.6
2017-Jun-25 06:07 256 24 gusting 45 10.6
2017-Jun-25 05:52 181 31 gusting 65 10.6
2017-Jun-25 05:37 200 26 gusting 47 10.6
2017-Jun-25 05:22 213 27 gusting 44 10.0
2017-Jun-25 05:07 246 32 gusting 62 10.0
2017-Jun-25 04:52 278 29 gusting 53 10.0
2017-Jun-25 04:37 211 32 gusting 64 10.0
2017-Jun-25 04:22 218 33 gusting 65 10.0
2017-Jun-25 04:06 215 39 gusting 65 10.0
2017-Jun-25 03:51 244 27 gusting 49 10.0
2017-Jun-25 03:37 210 27 gusting 53 10.0
2017-Jun-25 03:21 247 26 gusting 42 10.0
2017-Jun-25 03:06 236 27 gusting 59 10.0
2017-Jun-25 02:51 264 41 gusting 67 10.0
2017-Jun-25 02:36 242 26 gusting 46 10.0
2017-Jun-25 02:21 247 34 gusting 63 10.0
2017-Jun-25 02:06 194 17 gusting 34 10.0
2017-Jun-25 01:51 215 13 gusting 52 10.0
2017-Jun-25 01:36 189 23 gusting 51 9.4
2017-Jun-25 01:21 244 26 gusting 65 9.4
2017-Jun-25 01:06 230 29 gusting 50 10.0
2017-Jun-25 00:51 207 22 gusting 60 10.0
2017-Jun-25 00:36 210 25 gusting 50 10.0
2017-Jun-25 00:21 230 30 gusting 48 10.0
2017-Jun-25 00:06 245 26 gusting 47 9.4
2017-Jun-24 23:51 223 21 gusting 44 9.4
2017-Jun-24 23:36 157 11 gusting 28 9.4
2017-Jun-24 23:21 230 11 gusting 35 8.9
2017-Jun-24 23:06 234 16 gusting 35 8.9
2017-Jun-24 22:51 236 33 gusting 58 9.4
2017-Jun-24 22:36 267 30 gusting 48 9.4
2017-Jun-24 22:22 263 24 gusting 44 10.0
2017-Jun-24 22:06 211 18 gusting 33 9.4